Location: Chena
(64.8152°N, 147.9227°W)
Time: 19:09:04
(UTC+00:00)

N. Korean satellite - Visible Passes

Search period start: 22 January 2021 00:00
Search period end: 01 February 2021 00:00
Orbit: 452 x 502 km, 97.2° (Epoch: 22 January)

Date Brightness Start Highest point End Pass type
(mag) Time Alt. Az. Time Alt. Az. Time Alt. Az.
22 Jan 8.1 02:39:33 10° S 02:43:02 40° W 02:46:29 10° NNW visible
22 Jan 10.0 13:54:57 10° ENE 13:55:46 11° E 13:56:33 10° E visible
22 Jan 7.4 15:26:29 10° NNE 15:29:58 50° E 15:33:22 10° S visible
22 Jan 7.2 17:00:00 10° N 17:03:12 32° WNW 17:06:21 10° WSW visible
23 Jan 7.1 02:12:43 10° S 02:16:21 65° WSW 02:19:57 10° NNW visible
23 Jan 9.8 03:48:25 10° WSW 03:50:23 14° W 03:52:21 10° NW visible
23 Jan 8.4 15:00:01 10° NNE 15:03:13 31° E 15:06:22 10° SSE visible
23 Jan 6.7 16:33:18 10° NNE 16:36:45 48° WNW 16:40:06 10° SW visible
24 Jan 9.5 03:20:40 10° SW 03:23:30 21° W 03:26:18 10° NW visible
24 Jan 9.2 14:33:43 10° NE 14:36:25 20° E 14:39:04 10° SE visible
24 Jan 6.3 16:06:39 10° NNE 16:10:12 78° WNW 16:13:40 10° SSW visible
24 Jan 7.9 17:40:29 10° N 17:43:04 19° NW 17:45:36 10° W visible
25 Jan 8.7 02:53:24 10° SSW 02:56:42 31° W 02:59:58 10° NNW visible
25 Jan 9.8 14:07:46 10° NE 14:09:31 13° E 14:11:14 10° ESE visible
25 Jan 6.9 15:40:03 10° NNE 15:43:34 64° ESE 15:47:01 10° S visible
25 Jan 7.5 17:13:40 10° N 17:16:40 26° NW 17:19:38 10° WSW visible
26 Jan 7.7 02:26:25 10° S 02:29:58 50° W 02:33:29 10° NNW visible
26 Jan 10.1 04:03:05 10° W 04:04:08 11° W 04:05:10 10° WNW visible
26 Jan 7.9 15:13:32 10° NNE 15:16:52 39° E 15:20:08 10° S visible
26 Jan 6.9 16:46:56 10° N 16:50:14 38° WNW 16:53:29 10° SW visible
27 Jan 9.7 03:34:48 10° SW 03:37:12 17° W 03:39:36 10° NW visible
27 Jan 8.8 14:47:07 10° NE 14:50:05 25° E 14:52:59 10° SSE visible
27 Jan 6.4 16:20:14 10° NNE 16:23:43 61° WNW 16:27:07 10° SSW visible
28 Jan 9.1 03:07:17 10° SSW 03:10:20 25° W 03:13:22 10° NW visible
28 Jan 9.5 14:20:56 10° NE 14:23:12 16° E 14:25:27 10° SE visible
28 Jan 6.5 15:53:36 10° NNE 15:57:07 83° ESE 16:00:34 10° SSW visible
28 Jan 7.7 17:27:20 10° N 17:30:06 22° NW 17:32:49 10° WSW visible
29 Jan 8.2 02:40:09 10° S 02:43:34 39° W 02:46:56 10° NNW visible
29 Jan 10.0 13:55:34 10° ENE 13:56:15 10° E 13:56:56 10° E visible
29 Jan 7.4 15:27:02 10° NNE 15:30:26 50° E 15:33:49 10° S visible
29 Jan 7.2 17:00:33 10° N 17:03:41 31° WNW 17:06:46 10° WSW visible
30 Jan 9.9 03:49:04 10° WSW 03:50:54 13° W 03:52:42 10° NW visible
30 Jan 8.4 15:00:33 10° NNE 15:03:41 31° E 15:06:47 10° SSE visible
30 Jan 6.7 16:33:48 10° N 16:37:11 47° WNW 16:40:30 10° SW visible
31 Jan 9.5 03:21:15 10° SW 03:23:59 20° W 03:26:41 10° NW visible
31 Jan 9.2 14:34:12 10° NE 14:36:51 20° E 14:39:28 10° SE visible
31 Jan 6.3 16:07:08 10° NNE 16:10:37 77° WNW 16:14:03 10° SSW visible
